SLS DEB, 55907

Orbit data source: Space-Track

SLS DEB, 55907 is space debris in LEO originally from a launch on Wed, 16 Nov 2022 UTC launched from the Air Force Eastern Test Range (AFETR). Debris objects in space refer to the collection of defunct objects orbiting the Earth. Examples of debris include non-operational satellites, rocket bodies, and fragments generated from explosions, collisions, or faulty payload assembly.

Loading next visibility...
Identifier
55907, 2022-156G
Orbit
LEO
Country
Flag of USUS
Related business
Manufacturer
ULA Decatur
Mission
Spacecraft
Bus & Motor
Unknown
Mass
Unknown
Launch date (UTC)
2022-11-16 (4 years ago)
Launch vehicle
Unknown
Launch site
Air Force Eastern Test Range (AFETR)
Object type
Payload
Rocket body
Debris
Shape & HBR
Unknown shape, 0.1 m
Radar Cross Section
Medium (>0.1 m² and <1 m²)

Expand to show TLE details & history
Last TLE update: 1 week ago

TLE from 1 week ago
0 SLS DEB
1 55907U 22156G   26152.48530685  .00041398  00000-0  39187-2 0  9992
2 55907  30.5584 297.6855 1353992 284.6928  60.7714 12.56671684145681
Epoch: 2026-06-01T11:38Z
TLE epoch observation values (Epoch: 2026-06-01T11:38:50.511Z)
Latitude
0.00002°
Longitude
-126.99688°
Altitude
1,038.405 km
Speed
7.518 km/s
True Right ascension
19h 50m 44s
True Declination
0° 00' 00"
Sunlit
Object was in full shadow at epoch
Visualization orbit readout
Latitude
Unknown
Longitude
Unknown
Altitude
Unknown
Speed
Unknown
Apparent Right ascension
Unknown
Apparent Declination
Unknown
Sunlit
N/A
Visualization observer readout
Local Sidereal Time
11:44:49
Azimuth
Unknown
Elevation
Unknown
Doppler factor
Unknown
Orbital elements
Apogee altitude
2,498.872 km
Perigee altitude
381.661 km
Semi-major axis
7,818.403 km
Eccentricity
0.1354
Inclination
30.5584°
RAAN
297.6855°
Arg. of periapsis
284.6928°
True anomaly
75.36554°
Mean anomaly
60.7714°
Eccentric anomaly
67.9624°
Mean motion
3.13954 °/min
Orbital period
114.67 mins
BSTAR
0.0039187
Loading maneuver chart data...
Computing Atmospheric mass density...
Loading historical data...
Loading historical data...
Loading historical data...
Loading historical data...
Loading historical data...
Loading historical data...
Loading historical data...

Documentation

Showing up to 5 results
|